Theta_e
349 349 350 351 351 350 351 351 351 351 351 351 350 351 351 351 349 350 350 349 350 349 349 349 349 348 347 347 345 344 342 340 336 336 336 335 334 334 334 333 333 333 333 332 333 332 332 331 330 330 328 328 328 328 329 329 328 328 328 326 325 323 323 321 319 320 321 321 324 326 326 329 328 327 327 327 328 328 337 332 331 330 331 331 332
349 350 350 350 350 350 351 351 352 352 351 351 351 351 351 351 351 350 349 350 350 349 349 349 349 348 347 346 346 344 342 341 337 335 336 335 334 335 334 333 333 332 332 332 332 333 332 331 330 330 329 329 328 328 329 329 329 327 327 328 326 326 326 324 322 319 320 319 322 323 326 328 328 326 328 328 328 330 328 329 329 329 330 331 330
350 351 351 350 349 350 350 351 351 351 351 351 351 351 351 352 352 350 350 349 350 350 349 348 348 348 347 346 345 344 343 341 339 336 335 335 335 335 335 334 333 333 332 332 332 332 331 331 331 330 332 329 329 329 329 329 330 329 329 329 327 327 327 326 323 321 321 323 321 322 322 326 328 328 327 329 330 329 328 330 331 332 332 330 330
350 351 351 350 350 350 350 350 351 351 351 351 351 352 352 352 353 351 350 350 349 350 349 348 348 347 346 346 345 344 342 341 339 337 336 335 335 335 335 334 334 333 333 332 332 332 331 330 330 331 331 330 328 328 328 329 330 330 329 330 329 328 329 328 327 326 324 323 322 324 324 324 325 326 328 329 328 329 329 330 329 330 331 331 329
350 350 351 351 351 350 350 350 350 350 351 352 352 352 353 352 352 352 351 350 349 349 349 349 347 347 346 345 345 343 342 341 339 337 336 336 335 334 334 334 334 334 333 333 336 332 332 331 331 330 330 330 328 328 329 328 329 330 329 330 331 331 331 330 329 328 326 325 325 323 324 324 325 326 326 327 328 326 326 326 328 328 329 330 331
350 350 351 350 350 350 351 350 350 350 351 351 352 353 353 353 352 352 352 350 350 349 349 348 348 346 346 346 345 344 342 340 339 338 337 336 335 334 334 334 334 334 333 333 334 333 332 332 331 331 330 330 329 329 329 329 329 329 329 330 331 331 330 329 329 328 327 328 326 325 322 325 324 324 325 326 326 327 327 327 326 325 325 326 327
350 350 350 350 350 351 351 351 351 351 351 352 352 353 353 353 353 352 352 351 350 349 349 348 348 347 347 346 345 344 342 340 339 338 337 336 335 334 334 334 334 334 334 333 334 334 333 332 331 331 331 331 330 330 330 330 331 330 331 331 331 330 329 328 328 327 326 326 325 325 324 323 323 324 324 326 326 325 325 324 324 323 323 323 326
351 351 351 350 350 351 352 352 352 352 353 353 352 353 353 353 353 353 353 351 350 349 349 348 348 348 347 346 346 345 343 341 339 338 337 337 336 335 335 334 334 334 334 334 334 334 334 334 333 332 332 332 331 331 331 330 330 330 331 331 331 330 329 329 327 326 325 325 324 324 322 322 319 323 323 321 321 320 323 324 322 321 322 320 321
351 351 351 351 351 352 352 353 354 353 353 353 352 352 352 353 353 353 352 352 352 351 350 349 348 347 346 346 346 345 343 342 340 339 337 336 336 336 336 336 335 334 334 334 334 334 335 335 334 333 335 338 339 338 336 336 332 331 332 333 332 330 329 328 328 327 326 325 324 323 321 320 321 321 319 318 319 321 318 320 321 322 322 323 324
351 351 351 351 352 352 353 353 353 354 353 353 352 352 352 352 352 352 352 352 352 351 350 350 349 348 346 345 345 344 343 343 338 330 332 338 337 337 337 336 336 336 335 335 335 335 335 335 336 341 341 343 341 340 338 339 339 336 334 333 333 331 330 329 327 327 326 324 324 324 322 322 322 321 320 320 320 319 318 317 317 320 316 318 320
351 351 351 352 353 353 353 353 353 353 353 353 353 352 352 352 351 351 351 352 351 351 350 349 349 348 347 345 344 344 344 342 330 326 328 330 336 337 337 336 336 336 336 335 334 335 335 335 334 340 342 344 342 343 342 341 341 340 339 338 337 333 330 329 328 327 326 325 325 323 323 322 323 322 321 322 320 321 320 317 318 317 317 314 316
350 351 352 353 353 353 353 353 353 353 353 353 353 353 352 351 351 350 350 350 351 351 350 349 349 348 348 346 344 344 343 334 326 325 327 327 331 339 338 337 337 336 336 335 335 335 335 335 335 336 338 338 338 341 343 342 340 341 340 337 336 335 334 332 330 327 325 325 323 324 323 322 323 321 322 320 321 320 320 319 318 318 317 314 313
350 350 352 352 353 353 353 353 352 352 353 353 353 353 352 351 350 350 349 350 350 350 350 350 349 349 348 346 345 345 344 332 325 324 325 326 327 332 339 338 337 337 336 336 335 335 335 335 335 335 336 343 342 337 338 340 340 339 338 339 336 332 328 328 328 330 328 325 325 324 324 323 322 324 325 322 321 319 317 316 316 316 317 315 316
349 350 351 352 353 353 353 353 352 352 353 353 353 352 351 351 351 351 350 350 349 349 349 349 349 348 348 347 346 346 345 329 323 321 323 324 326 329 339 339 338 338 337 337 336 336 335 335 334 333 333 337 339 338 336 337 338 338 337 335 334 336 331 325 325 326 329 329 326 325 326 326 325 325 327 324 320 320 318 318 317 317 317 318 319
348 349 350 352 353 353 353 353 352 352 352 353 352 352 351 351 351 351 350 349 349 349 349 349 349 349 349 348 347 346 347 326 320 320 320 321 324 326 337 339 338 338 337 337 337 336 335 335 334 333 333 333 337 338 335 334 333 332 330 329 329 330 329 330 327 328 329 327 326 326 327 328 327 327 327 327 325 324 323 323 322 321 319 314 313
347 348 349 351 352 353 353 353 352 352 352 352 352 351 351 351 351 351 351 350 350 350 350 350 349 349 349 349 347 346 347 323 319 319 320 321 323 331 335 338 338 337 336 336 336 336 335 334 333 333 333 333 335 334 339 334 332 330 328 326 327 329 330 332 326 330 332 330 330 329 329 330 326 329 329 327 324 324 324 322 317 315 313 310 310
345 347 348 350 352 353 353 353 352 352 352 351 351 351 351 351 351 352 350 350 349 349 349 350 350 350 349 348 347 347 347 326 318 317 319 320 322 332 335 337 337 337 336 335 335 335 335 334 333 333 332 332 331 325 330 341 331 330 328 326 328 330 330 328 323 324 323 321 321 323 323 321 321 319 317 317 322 321 317 314 313 311 311 308 310
345 346 347 349 351 352 353 353 353 352 352 351 351 352 352 352 352 352 350 349 349 349 350 350 350 350 349 349 348 347 347 328 316 316 318 318 323 334 335 335 336 336 335 334 334 334 335 341 338 333 333 333 326 323 324 336 331 330 330 329 327 326 327 327 329 327 322 320 320 319 319 319 318 317 316 315 314 318 317 314 312 310 310 309 307
345 345 347 349 350 352 353 354 353 353 352 352 352 352 352 352 352 352 351 351 350 350 350 349 350 350 350 350 342 345 347 328 314 317 317 317 323 336 336 335 335 334 334 332 333 334 333 339 342 337 335 331 322 321 321 333 333 331 330 328 327 327 325 325 325 323 321 322 322 322 322 321 321 318 322 321 317 318 317 317 313 312 310 311 312
346 347 347 348 350 352 354 354 354 353 353 353 353 353 353 352 352 352 351 351 350 350 349 349 349 349 350 350 348 346 346 335 322 315 315 315 318 335 336 335 334 334 334 333 331 331 332 333 335 327 324 322 318 316 317 323 332 332 329 326 324 325 324 324 325 322 322 322 319 320 320 319 318 317 317 316 320 324 319 317 315 314 312 310 313
347 347 347 348 350 352 353 354 354 354 354 354 354 353 353 352 352 352 351 351 351 350 349 349 349 349 349 349 348 346 345 337 328 314 313 314 315 326 336 336 335 334 333 333 331 330 330 331 335 327 319 318 315 312 312 316 325 328 328 327 329 326 321 321 327 329 321 321 319 318 316 317 315 314 315 314 318 318 318 316 317 315 312 310 307
348 347 347 348 349 351 352 354 354 354 355 354 353 352 353 353 353 352 352 351 350 349 349 347 348 345 343 343 343 343 339 333 333 316 314 311 313 320 334 336 336 335 332 331 331 330 330 330 330 326 316 315 312 309 308 311 318 327 328 320 317 318 321 321 320 319 317 317 313 315 315 312 310 312 313 316 317 320 312 313 315 314 314 311 308
347 347 347 347 349 350 352 352 353 355 354 354 353 352 352 352 352 352 351 350 349 348 346 345 342 338 336 337 338 337 336 334 323 321 312 311 310 316 322 329 326 335 332 330 329 329 328 328 329 323 314 310 308 306 307 310 315 324 317 311 312 318 324 318 319 315 312 312 313 312 310 310 311 310 312 313 313 312 313 311 310 310 312 315 313
348 348 347 347 348 349 351 352 353 354 354 353 353 352 351 352 351 352 351 349 348 345 342 341 339 336 334 332 332 333 333 332 322 319 318 311 310 312 315 319 321 332 332 331 329 327 326 327 325 314 308 302 302 306 308 311 321 313 309 311 315 319 319 318 313 313 315 312 311 310 309 308 309 308 311 313 313 310 310 309 309 308 308 309 308
348 348 347 347 347 349 350 351 352 353 354 354 352 352 351 351 350 350 349 348 346 343 339 339 338 335 333 332 331 330 329 328 325 322 316 311 311 311 314 315 317 320 330 328 329 327 321 315 310 307 304 303 305 308 310 310 311 307 308 313 320 316 315 312 311 311 309 310 310 310 309 311 309 312 312 309 312 312 312 310 310 310 309 308 309
348 348 348 347 347 348 349 350 352 353 354 354 353 353 352 350 349 347 347 346 344 341 337 337 336 334 332 331 330 329 326 324 322 321 320 317 315 313 315 316 320 323 325 325 321 318 314 312 309 307 307 310 315 318 319 318 311 311 312 317 315 312 312 310 309 310 309 309 310 310 309 308 309 310 310 312 310 309 308 308 307 309 308 307 306
348 348 348 348 348 348 348 350 351 353 354 354 354 353 352 351 348 344 345 344 341 339 337 336 334 333 332 330 329 328 326 323 321 320 319 318 319 318 318 319 319 319 322 320 318 317 315 316 316 313 313 314 318 319 319 315 313 312 314 314 313 313 313 310 309 310 311 309 310 309 307 308 309 312 310 309 309 308 308 311 307 306 308 305 304
349 349 349 349 348 349 349 352 352 353 353 354 352 351 349 349 346 344 344 343 341 338 337 336 334 333 332 330 328 327 325 324 322 320 319 319 319 318 320 323 323 323 320 319 320 320 318 315 313 318 318 318 318 316 315 315 314 312 311 311 312 313 315 317 317 309 307 307 307 307 310 309 308 308 309 308 307 307 309 309 308 305 306 304 300
340 342 347 350 350 349 351 351 352 353 352 352 350 349 348 346 345 345 346 346 344 341 339 337 336 336 333 330 328 326 325 324 324 317 321 315 318 319 319 321 321 322 321 315 321 319 318 318 317 317 318 318 316 314 314 313 313 312 311 310 310 310 312 312 312 312 311 309 310 309 309 307 308 309 310 307 307 306 305 304 305 304 303 301 300
334 335 336 340 343 346 348 348 348 349 347 337 324 316 309 306 323 342 331 325 330 325 326 337 336 335 333 332 331 328 327 328 315 307 306 306 306 309 310 309 311 317 313 313 321 319 319 319 318 318 316 316 315 314 313 313 313 311 310 311 310 309 309 310 310 310 311 311 310 308 309 308 307 307 305 305 305 304 303 307 305 305 302 299 299
335 333 334 336 337 339 337 336 337 337 336 335 335 328 318 311 298 304 317 320 313 307 308 312 317 324 331 330 321 319 318 310 304 304 303 303 303 303 304 304 305 304 306 319 321 319 318 318 317 316 317 316 316 315 314 313 313 311 310 311 311 311 312 310 310 309 310 310 309 308 308 307 306 305 303 305 305 304 304 305 305 303 300 300 299
330 330 331 332 333 334 336 334 333 332 332 334 333 328 323 317 312 300 300 308 308 306 306 307 310 313 316 320 320 316 307 304 303 301 302 301 301 300 300 301 301 302 304 312 321 319 319 318 316 315 315 315 315 315 314 312 312 312 311 310 311 312 312 311 309 310 309 308 307 308 307 307 306 304 303 303 305 304 302 301 300 300 301 300 300
330 328 328 331 332 333 332 331 330 330 329 329 330 331 328 325 319 312 307 299 299 301 302 304 306 307 308 308 311 309 305 301 301 300 300 300 299 299 300 300 300 301 305 318 320 318 317 317 316 315 315 315 314 314 313 313 312 311 311 310 310 309 311 309 307 308 309 309 306 305 304 305 304 305 306 305 303 300 301 301 299 299 300 297 298
329 328 328 329 327 327 327 327 327 326 327 327 327 327 328 326 322 318 317 318 317 307 300 297 299 303 304 305 304 301 300 299 300 299 299 299 299 298 299 302 298 300 310 321 319 317 317 317 317 316 315 314 313 313 312 312 311 309 309 308 306 307 306 304 305 306 306 306 303 304 303 302 304 302 301 302 303 301 300 300 298 297 296 296 296
332 334 334 332 330 329 329 328 328 328 327 326 325 325 325 326 326 326 325 325 323 319 315 311 301 299 308 303 298 299 298 299 299 298 298 298 297 297 301 310 311 312 314 317 319 318 317 318 318 316 314 313 311 312 310 309 308 308 308 307 306 304 303 303 303 304 304 303 303 303 304 303 302 302 301 299 298 297 297 298 297 297 295 296 297
335 334 334 333 331 331 330 329 329 329 328 326 327 327 328 328 327 326 324 324 321 315 312 308 306 303 298 295 296 297 297 298 297 297 297 297 298 304 315 314 315 316 318 319 320 320 319 318 315 312 311 311 311 309 308 308 308 307 306 307 306 304 304 303 304 303 304 303 303 303 301 300 300 299 297 297 297 297 296 297 297 298 299 297 299
333 332 332 333 333 332 330 330 329 328 326 325 326 327 327 327 326 326 324 322 319 315 310 308 310 311 309 307 301 296 296 297 297 297 297 298 300 314 319 317 317 317 318 319 319 318 315 312 311 310 310 310 308 307 307 306 306 307 307 305 304 303 303 302 302 305 300 301 298 298 298 297 296 297 296 296 297 296 296 299 298 298 299 301 303
333 333 334 333 331 331 330 328 326 326 327 328 328 327 327 326 326 325 323 320 316 313 311 315 318 317 312 307 311 307 302 298 298 298 298 299 309 317 318 319 319 318 318 317 317 316 313 310 309 310 309 308 307 306 306 306 305 306 306 304 304 305 309 306 308 301 300 299 298 297 299 298 296 296 299 296 295 295 296 299 296 295 296 299 298
332 327 326 327 329 330 329 329 328 328 327 327 327 327 326 325 324 322 320 318 316 315 316 318 318 318 313 309 308 308 310 312 313 312 312 315 316 315 317 318 318 317 317 316 316 313 311 309 309 309 308 307 308 306 306 306 305 304 304 303 303 302 303 301 300 298 300 298 299 296 299 296 295 295 295 294 296 295 294 295 296 296 295 295 295
332 332 328 327 330 329 330 331 329 328 328 326 326 326 326 325 323 321 319 318 316 317 318 318 318 315 311 310 310 313 317 317 317 316 315 315 315 315 316 316 316 316 316 315 313 311 311 309 308 308 307 306 306 305 305 305 305 304 303 303 302 301 299 298 297 297 297 296 297 296 296 295 294 296 293 294 295 294 295 296 297 296 296 295 296
332 333 334 328 328 331 333 330 329 328 328 327 327 326 325 325 323 321 320 319 318 318 318 319 317 313 310 309 306 310 320 318 317 316 316 316 315 314 315 315 315 315 315 315 313 311 310 309 308 307 306 306 305 305 304 304 303 303 302 303 301 299 297 296 297 297 297 298 296 296 295 296 297 295 295 297 302 297 296 297 296 295 296 296 296
330 329 329 329 330 332 331 330 330 332 330 328 327 326 326 325 323 321 321 320 319 318 318 317 314 312 307 302 301 304 315 318 317 316 316 316 315 314 314 313 314 315 315 314 313 311 310 309 308 307 307 306 306 305 304 303 302 301 301 300 299 298 298 297 297 297 296 296 295 294 295 297 298 298 298 301 293 293 295 294 295 295 295 296 297
328 328 329 331 330 330 330 330 330 329 328 327 326 329 328 324 323 322 321 320 320 319 318 315 313 311 308 303 304 305 316 316 319 316 315 314 314 314 312 311 312 314 314 314 313 311 310 309 308 308 308 307 306 306 305 303 301 300 299 298 297 297 296 297 297 296 296 296 297 299 297 297 298 295 294 297 293 294 293 294 296 296 296 295 295
327 328 328 328 327 328 328 328 328 328 328 329 329 327 327 325 324 323 322 321 320 320 318 315 313 311 309 306 305 310 315 315 315 314 315 315 314 314 312 310 311 312 312 312 310 310 310 310 308 306 306 306 305 304 302 301 299 298 297 296 297 298 296 297 297 296 296 295 296 296 295 297 296 294 297 298 291 294 295 296 297 296 296 295 296
327 327 325 324 324 324 324 325 325 326 328 328 327 327 327 325 324 322 322 321 321 319 318 316 313 312 310 309 310 313 314 314 315 315 314 314 314 313 312 310 311 310 310 310 309 310 310 309 308 306 304 302 301 301 299 298 297 297 297 297 297 299 297 297 296 295 295 295 295 295 294 294 290 290 293 293 296 294 296 295 295 300 296 296 295
327 325 324 322 322 322 322 322 324 323 324 324 324 324 324 323 323 323 322 321 321 319 317 316 314 312 311 311 311 312 313 313 314 314 314 313 313 312 311 311 310 309 310 309 308 308 309 308 307 305 303 301 299 298 297 297 296 296 296 296 297 297 295 295 294 295 294 293 292 292 294 292 290 291 298 293 294 295 293 295 295 297 296 296 296
326 325 323 322 321 321 321 322 321 321 321 322 322 322 321 322 322 322 323 321 320 319 316 314 313 312 312 312 313 312 313 313 313 313 313 313 312 312 312 310 309 308 307 306 306 307 307 307 305 304 303 301 300 298 296 295 294 295 296 293 293 293 293 294 295 294 292 291 292 290 292 293 294 296 299 298 295 295 296 296 296 297 297 297 296
323 323 322 321 321 321 322 322 323 323 321 321 322 323 322 321 320 321 321 320 318 317 316 315 314 313 314 314 314 313 313 313 314 314 313 313 312 312 311 310 309 308 306 305 305 306 306 305 304 303 303 302 301 298 296 294 293 294 293 293 292 292 294 295 292 291 290 291 290 290 290 291 291 291 293 292 292 294 295 294 296 297 297 298 299
322 322 320 319 320 320 320 322 322 321 322 321 321 322 321 321 320 321 321 320 318 317 316 315 314 314 314 314 314 313 313 313 313 313 313 313 312 312 310 309 309 307 306 305 305 305 305 304 305 304 303 302 300 298 296 296 294 294 293 292 294 296 292 294 292 290 290 292 291 290 289 289 290 292 294 294 294 294 294 295 295 297 298 298 298
321 322 321 322 321 319 320 320 319 319 320 321 321 320 320 320 320 320 320 319 318 316 316 315 314 315 315 314 314 313 313 313 312 312 312 312 312 311 310 309 308 307 306 305 304 304 304 304 304 304 303 302 300 298 297 297 296 295 294 294 294 291 290 291 291 292 291 289 289 288 288 288 289 289 290 291 292 293 293 295 297 298 298 296 296
323 322 321 321 320 318 317 316 316 317 318 317 317 316 317 318 319 318 317 317 316 316 316 315 314 314 314 314 315 314 313 313 312 311 312 312 312 311 310 309 308 307 305 304 304 304 305 305 304 303 302 302 300 299 298 297 296 296 295 295 292 291 291 292 291 290 292 291 287 289 289 290 289 289 289 289 288 289 297 299 298 297 297 297 297
Wind_Speed
18 17 16 16 16 17 16 15 15 13 13 13 13 14 13 12 12 11 9 10 10 11 11 12 12 11 11 11 11 10 10 9 8 8 8 9 8 8 7 8 9 7 6 6 5 5 6 6 5 5 4 5 5 5 4 4 3 3 4 5 5 3 5 4 4 5 3 3 3 4 1 1 2 2 3 3 3 2 3 3 3 3 3 4 5
18 17 16 16 18 17 16 15 15 14 15 14 15 14 13 13 12 10 11 11 11 12 12 11 11 11 11 12 11 10 10 10 9 8 9 9 9 7 7 8 9 8 6 7 7 6 5 6 6 5 5 6 5 5 5 5 5 5 4 5 6 5 4 4 5 2 4 1 2 2 3 2 3 1 4 3 4 1 2 2 2 3 4 4 4
18 16 16 16 18 16 15 15 15 16 16 15 16 15 14 13 12 12 12 11 10 11 12 12 11 12 12 11 11 11 11 10 9 10 10 10 10 9 8 9 10 9 9 8 7 6 6 7 7 5 4 5 5 5 4 5 6 7 7 5 6 6 5 5 4 4 5 5 2 2 2 2 4 4 3 2 1 1 3 4 4 4 3 3 4
17 17 16 17 17 16 16 15 16 16 17 15 16 16 14 13 12 13 13 11 11 11 11 12 11 12 12 12 11 11 11 10 10 10 11 11 10 11 9 9 10 9 9 8 7 8 8 7 7 6 5 6 5 5 5 5 6 6 6 5 5 6 5 5 5 5 4 5 3 2 2 2 3 3 2 2 2 3 3 4 3 4 5 5 3
16 17 17 17 16 16 16 15 16 17 17 15 17 16 15 13 12 13 12 12 11 10 10 10 11 12 12 13 12 12 12 11 10 10 10 10 11 10 10 9 10 9 9 8 8 8 9 9 7 6 6 7 5 5 5 6 5 6 6 5 5 5 4 5 6 4 4 5 4 3 2 2 2 3 2 3 3 2 2 3 4 4 5 5 4
17 17 17 17 17 17 16 16 17 18 17 16 16 15 15 14 14 12 13 13 12 11 12 11 11 13 13 12 12 12 11 11 11 11 11 10 10 9 9 9 9 9 8 8 8 8 9 9 7 7 7 8 7 6 6 7 5 6 5 5 5 4 5 5 4 5 5 6 4 4 1 3 3 3 2 2 3 4 5 5 4 3 3 5 4
17 17 17 18 16 17 17 18 16 16 16 15 13 13 14 15 14 14 13 13 12 12 12 12 12 12 12 11 12 12 11 11 11 11 11 10 10 10 9 9 8 8 8 8 8 7 8 8 8 8 9 9 8 8 7 6 6 6 7 7 5 5 5 4 4 5 5 5 4 5 5 4 3 6 1 1 1 3 4 6 6 3 3 4 6
17 17 17 17 17 18 18 16 15 15 14 14 14 14 14 14 14 13 11 13 13 13 13 13 12 11 11 12 11 11 11 11 11 11 11 11 10 10 10 10 10 9 8 8 8 8 9 9 8 9 9 9 9 8 8 8 6 7 6 5 5 5 5 4 4 5 5 6 6 6 5 4 2 3 1 1 1 3 3 4 6 6 6 3 3
17 17 17 18 18 18 16 14 14 14 15 14 15 14 14 14 13 12 12 12 11 13 12 12 12 12 11 11 11 11 11 12 11 11 11 11 10 10 11 11 10 10 9 9 8 8 8 8 8 8 9 10 12 11 10 8 7 8 6 6 6 6 5 5 5 5 6 6 6 4 4 5 5 4 3 3 5 7 2 3 5 5 5 6 6
17 17 18 19 17 15 15 15 15 15 15 15 15 14 13 13 12 13 13 13 12 11 12 12 12 13 12 12 11 11 11 10 13 17 15 12 11 10 10 10 10 10 10 9 9 9 10 8 8 13 13 15 15 14 13 13 13 10 8 7 7 6 6 6 6 6 6 6 7 7 6 7 7 6 5 4 3 1 1 2 4 5 2 5 6
17 18 20 19 17 16 15 16 15 16 16 15 13 14 14 12 12 13 12 12 13 12 12 13 13 12 13 12 12 11 11 10 16 16 18 18 13 11 12 12 11 10 10 10 10 11 9 9 8 10 12 12 12 15 13 14 15 15 13 12 10 9 7 7 7 6 6 7 6 6 7 7 7 4 4 4 2 4 4 3 5 3 4 4 6
18 19 19 16 16 17 16 16 16 17 15 16 15 14 13 12 13 13 13 14 13 12 13 14 13 13 12 12 13 12 12 13 16 18 19 20 18 14 12 11 10 10 10 10 10 9 9 9 8 7 7 9 8 9 11 15 15 15 15 13 13 12 11 9 8 6 6 6 5 7 6 7 6 2 3 2 5 5 5 4 5 5 5 5 3
18 18 17 16 17 17 16 16 17 16 16 16 13 12 13 14 14 14 15 15 12 13 15 13 13 13 12 13 13 13 12 14 17 19 19 21 22 19 12 11 9 9 10 11 11 10 8 8 7 6 6 12 9 8 8 10 14 17 15 13 11 11 11 12 7 5 4 5 6 7 7 5 4 4 3 4 3 4 3 4 4 5 5 5 6
17 18 16 16 17 16 16 17 17 17 15 14 13 14 14 16 16 15 13 12 13 15 14 15 14 13 13 13 13 12 12 14 19 20 21 22 23 20 13 11 10 10 11 11 10 9 8 8 7 7 6 7 8 8 8 8 7 7 7 5 5 7 10 6 11 10 8 8 5 4 3 3 4 5 3 1 2 4 4 6 4 4 4 6 4
18 17 17 17 16 16 17 17 17 16 15 14 15 16 17 16 16 14 13 15 15 15 15 14 13 13 14 13 12 12 12 16 19 21 21 23 24 19 13 10 8 8 8 8 9 9 8 8 7 8 8 8 8 9 8 8 6 6 5 4 4 4 2 4 6 7 5 5 3 6 6 4 2 4 5 7 8 6 5 5 4 3 2 1 3
18 16 16 16 17 17 18 17 16 14 15 15 17 18 17 17 17 15 13 13 13 12 11 13 14 14 13 13 12 13 11 17 20 21 23 23 23 13 12 10 7 6 7 7 7 7 7 8 8 8 8 9 10 13 11 7 7 6 6 4 3 2 5 7 6 7 7 6 7 1 1 4 5 7 8 7 5 3 2 0 0 0 1 3 5
15 15 16 16 16 16 16 17 16 15 16 17 18 18 18 17 15 13 14 14 14 14 14 13 12 13 14 13 14 13 11 15 20 21 22 24 16 10 7 6 8 9 7 6 7 7 7 8 8 8 8 7 10 13 13 10 6 6 5 4 3 2 4 4 6 9 9 7 7 7 9 7 8 13 15 13 7 3 2 0 3 1 1 4 3
17 17 17 17 16 16 16 15 15 16 16 19 19 17 16 14 14 14 15 15 15 14 13 11 12 13 14 14 14 13 12 13 20 20 22 22 17 11 9 9 8 6 7 6 6 7 9 15 11 8 8 8 11 14 13 9 6 6 5 4 3 2 5 4 2 1 3 6 9 9 8 8 10 11 11 9 5 5 3 4 3 1 2 3 4
16 17 17 17 16 15 15 16 16 17 18 18 17 17 16 16 13 12 13 13 14 12 11 12 12 11 12 13 16 15 11 11 19 20 23 21 15 10 9 8 9 8 7 6 6 7 6 10 14 10 8 9 13 14 13 10 7 6 5 4 2 5 8 8 8 5 3 4 2 0 1 1 2 3 2 3 1 3 3 5 3 3 4 4 4
17 16 13 10 10 11 13 15 17 17 18 17 15 16 13 11 12 14 13 12 12 11 12 11 12 11 11 12 11 13 11 8 15 22 21 20 19 13 10 10 10 10 9 9 8 6 6 6 9 14 14 14 13 14 13 13 9 5 4 3 3 7 9 8 5 6 6 5 4 2 2 2 3 2 3 3 2 3 5 5 4 5 5 5 4
14 13 12 12 12 14 14 15 17 17 16 15 14 13 12 13 13 13 13 12 11 11 12 11 11 10 10 10 9 10 9 10 13 20 20 20 18 16 10 11 11 9 9 8 7 6 6 5 5 10 15 13 12 13 12 13 7 5 6 7 8 6 9 6 8 10 6 4 3 1 2 1 1 1 2 3 4 3 3 3 4 6 6 5 4
13 12 12 14 15 15 15 15 16 14 13 12 12 14 13 13 13 14 11 11 13 13 11 10 10 9 7 7 8 9 10 15 11 17 19 18 18 19 11 10 10 9 8 7 6 5 6 7 7 9 13 12 12 11 10 9 8 5 8 8 8 12 7 5 5 6 5 5 5 4 3 3 3 3 2 1 1 2 3 4 5 5 5 5 5
5 6 8 11 13 15 15 17 15 13 13 14 14 14 13 13 12 12 12 12 12 12 12 10 9 8 7 6 7 8 8 9 15 14 17 19 20 20 17 12 13 9 9 8 7 7 6 6 6 10 12 12 9 9 10 11 9 8 8 10 9 9 6 5 4 4 4 3 3 3 3 2 1 1 1 1 2 3 4 3 3 3 3 3 3
8 10 12 13 13 13 14 16 16 15 16 16 15 15 13 13 12 12 12 12 11 11 9 10 10 10 9 7 6 6 7 7 11 17 16 19 17 18 15 12 13 8 7 7 6 6 6 6 7 10 10 11 11 10 9 10 6 6 8 11 10 7 4 5 4 4 3 2 1 2 1 0 1 1 2 2 2 3 4 2 2 2 3 4 3
11 13 14 15 15 16 16 15 16 16 15 16 16 15 15 15 13 12 12 12 12 11 10 10 11 10 10 10 8 7 6 6 6 9 15 15 17 16 13 12 13 11 7 4 5 6 7 9 11 12 12 11 11 9 7 7 9 9 10 10 9 5 5 5 5 4 3 2 2 2 0 1 2 3 3 3 2 1 1 2 1 1 2 1 2
10 13 13 13 15 15 14 14 14 15 15 14 15 15 15 15 13 11 11 11 11 11 11 10 10 10 10 9 9 8 7 6 6 7 7 9 11 15 12 9 10 10 8 6 8 9 10 10 11 12 11 10 8 5 4 3 9 11 10 9 4 5 4 5 3 4 4 3 2 3 2 1 1 3 2 1 0 2 1 1 3 5 5 5 6
12 12 13 13 13 13 14 12 12 12 13 12 12 12 12 13 13 14 13 13 12 12 12 11 10 10 10 9 8 8 7 7 7 6 7 7 7 7 7 6 9 10 8 6 7 6 6 5 5 7 8 9 9 8 6 6 5 5 4 3 3 3 3 3 5 5 3 3 3 2 2 3 2 1 1 1 2 4 1 1 1 4 3 2 1
12 13 15 13 12 13 13 17 16 12 13 13 12 11 11 13 14 15 16 16 16 15 13 13 13 12 11 10 9 8 7 7 7 8 8 8 7 7 7 7 7 7 7 6 6 6 7 8 9 7 7 7 6 5 4 3 3 4 3 3 3 2 3 5 4 2 2 2 2 2 1 1 1 2 2 2 3 3 0 1 0 3 2 1 2
4 4 5 8 10 12 13 14 15 16 15 14 12 13 17 16 15 14 13 13 17 17 15 14 13 12 12 12 11 9 8 8 8 8 11 13 13 11 9 9 8 7 9 12 8 6 6 6 5 5 6 7 7 6 5 5 4 3 3 3 3 3 3 4 4 5 4 4 5 5 5 3 3 1 1 2 3 3 0 1 1 2 2 1 3
2 1 2 1 3 5 7 9 9 10 12 13 13 8 9 7 6 13 10 6 2 11 18 15 14 12 11 10 12 14 12 9 12 15 16 16 16 17 14 13 12 11 13 15 11 7 6 6 6 6 6 6 6 6 6 6 6 5 4 5 5 4 4 4 5 4 4 5 5 4 4 2 2 1 1 3 3 3 0 1 1 1 0 1 3
6 6 2 3 7 7 7 7 8 11 13 15 15 14 11 11 19 17 15 20 15 11 13 17 20 18 16 10 5 10 15 16 18 16 17 17 17 16 17 16 15 17 16 10 6 7 7 7 6 5 6 6 6 6 6 6 6 6 6 6 5 5 5 5 5 4 4 5 2 2 1 2 3 2 3 3 2 3 2 1 0 0 2 2 3
4 3 3 5 3 5 8 9 10 11 11 12 14 15 15 16 15 18 17 17 19 17 15 16 19 19 20 18 12 6 9 14 17 16 16 15 14 14 14 15 15 17 16 14 8 7 7 7 6 6 6 6 5 5 5 6 5 5 5 5 5 5 5 5 5 5 5 4 5 4 4 5 5 3 3 2 1 1 1 3 2 1 1 1 3
7 7 8 6 4 4 5 10 11 11 11 9 10 14 16 17 19 15 15 19 18 16 13 13 15 18 19 19 19 16 12 13 17 16 16 15 14 14 14 15 16 16 12 7 7 7 6 7 7 6 6 6 6 6 5 5 6 5 5 5 5 5 5 4 4 5 4 5 5 4 4 3 3 3 2 1 1 2 1 1 2 1 1 2 3
7 6 5 4 6 6 9 9 1 6 9 9 7 7 10 13 18 23 23 17 13 14 16 14 12 15 15 16 16 16 17 17 16 16 15 15 14 14 13 9 10 14 12 9 7 8 7 7 6 6 6 5 5 5 5 5 4 4 3 3 3 4 3 3 4 4 4 5 5 4 3 3 3 2 1 1 1 1 1 1 1 1 3 3 4
4 6 7 4 3 5 6 5 7 7 7 8 9 9 10 10 11 13 13 16 17 14 9 6 10 12 9 9 13 16 16 15 15 15 15 15 15 16 15 11 7 4 3 2 6 7 7 7 7 6 6 6 5 6 6 5 6 6 6 5 5 5 5 5 5 4 5 4 5 4 3 3 2 2 2 2 1 1 1 1 1 1 2 3 3
5 5 4 5 4 4 4 2 3 1 5 9 9 9 10 11 11 11 11 10 12 13 8 7 6 9 15 13 11 13 15 15 16 16 15 17 18 19 11 8 8 8 7 6 7 7 7 7 6 6 6 6 6 6 6 7 6 6 6 7 6 6 6 6 4 4 3 3 2 2 2 1 1 1 1 1 1 1 1 1 1 2 1 2 3
6 6 6 5 4 4 6 4 5 5 6 8 8 9 8 10 11 10 9 9 11 10 11 9 9 10 11 9 12 13 12 13 15 16 17 18 19 13 9 11 10 9 8 7 6 6 6 6 6 6 6 7 6 6 6 6 6 6 5 6 6 7 6 6 5 4 4 2 1 1 1 1 2 2 3 3 1 1 1 1 1 1 1 3 3
4 5 7 9 7 6 6 6 5 5 5 8 9 10 10 10 9 8 8 8 9 10 11 9 8 10 10 7 7 6 10 12 15 11 7 8 8 5 6 7 8 9 8 6 6 6 6 6 6 8 6 7 7 6 6 6 6 6 6 5 5 5 5 4 3 3 3 3 4 4 4 3 3 4 3 3 3 1 1 0 0 2 2 3 3
4 8 11 11 8 8 6 4 3 5 7 8 8 10 10 9 7 7 7 8 8 8 8 8 8 9 10 9 9 10 13 9 9 9 9 9 6 5 6 6 7 7 6 7 6 6 7 7 7 7 7 6 7 6 6 6 6 6 6 6 6 4 4 5 4 4 5 4 4 5 6 5 4 4 4 3 2 2 1 0 0 1 2 3 5
5 4 7 10 8 8 6 5 5 7 7 8 7 8 8 7 7 7 8 9 9 8 7 8 7 7 7 8 10 10 11 11 10 9 9 8 6 6 6 7 7 8 8 7 6 7 7 7 7 7 7 6 7 7 6 7 7 6 6 6 6 6 6 6 7 6 6 6 6 5 6 6 6 4 3 2 2 2 1 0 1 1 2 3 4
5 5 5 6 7 7 7 6 6 6 6 6 6 6 6 6 6 6 6 7 7 7 6 6 6 6 8 10 15 14 12 11 10 9 9 9 7 7 7 7 7 7 7 7 7 6 7 7 7 7 6 6 6 6 6 6 6 6 6 6 5 6 6 5 5 6 5 5 6 6 5 5 4 6 4 2 2 2 1 0 1 1 1 2 3
5 5 5 5 6 6 6 6 6 6 6 7 7 7 7 7 7 7 7 7 6 6 6 5 5 5 6 8 9 2 3 6 8 8 7 6 6 6 6 6 6 7 7 7 7 7 7 7 7 7 7 6 6 6 6 6 6 6 6 6 6 6 6 6 5 4 5 5 5 4 4 4 3 2 2 3 2 1 0 0 1 1 2 3 3
4 5 4 4 5 5 6 6 6 6 6 6 5 5 6 7 7 7 7 7 6 6 6 6 6 5 6 8 6 3 6 6 7 7 7 7 6 6 6 6 6 6 7 7 6 7 8 8 7 7 7 8 8 8 8 8 7 6 6 6 6 6 6 5 4 5 5 5 5 4 4 4 3 3 3 2 2 1 1 0 0 1 2 3 3
7 6 5 4 3 4 5 5 6 7 7 7 7 6 6 5 5 6 6 7 6 6 6 6 7 7 6 6 4 4 6 6 7 7 7 7 6 6 6 6 6 6 6 6 6 7 8 8 7 6 5 6 6 5 6 6 7 7 7 6 6 5 6 6 6 6 6 6 6 5 5 4 3 3 2 1 2 1 0 0 0 1 2 3 3
6 5 5 5 4 5 4 3 2 3 6 6 6 6 6 6 6 5 5 6 6 6 7 7 7 7 6 7 6 6 6 7 6 6 6 7 7 6 5 5 5 6 6 6 6 7 7 7 7 7 6 5 5 6 6 6 6 7 7 7 7 7 7 7 7 6 6 6 6 4 4 4 4 4 3 3 2 2 1 0 1 2 2 3 3
4 4 6 6 6 5 4 3 3 2 2 3 4 4 5 5 5 6 6 5 6 8 7 7 7 8 8 8 6 6 6 6 6 6 6 6 6 6 5 5 5 6 6 7 7 7 8 8 8 8 8 7 6 6 5 5 5 5 5 6 7 7 6 6 6 6 6 5 6 6 5 4 4 4 5 4 2 2 2 1 1 1 1 3 4
6 5 5 5 5 4 4 4 4 4 5 6 4 4 4 4 4 4 4 6 7 7 8 8 8 8 8 8 7 6 6 6 6 6 6 6 6 6 6 5 6 6 6 6 6 7 8 8 8 8 8 7 6 6 6 5 4 4 3 3 4 4 5 6 6 6 6 6 5 5 5 5 4 3 2 2 2 1 1 1 1 1 1 2 3
5 5 5 5 5 4 3 3 4 5 3 3 5 5 6 6 7 7 6 4 3 6 6 7 7 7 7 7 6 6 6 5 5 6 6 6 6 6 6 6 7 7 6 6 6 6 7 7 7 7 7 7 7 6 6 6 5 5 4 4 4 5 7 6 4 4 3 4 4 5 5 5 4 3 3 3 3 1 1 0 0 1 1 3 3
5 4 3 4 3 4 3 3 2 3 5 4 3 4 5 5 6 7 7 7 5 5 7 7 7 7 7 7 7 6 5 5 6 6 6 6 6 6 7 7 7 7 7 7 7 7 7 7 8 8 8 8 8 8 7 6 6 5 5 5 7 10 11 10 7 6 6 4 4 4 4 4 4 4 3 2 2 2 1 1 1 1 2 2 3
5 5 4 3 4 5 4 3 1 1 1 1 4 3 3 5 5 5 6 5 5 6 5 6 7 7 8 8 7 7 6 6 6 6 6 6 6 6 6 7 7 7 7 7 7 6 6 6 7 7 7 7 7 7 7 7 7 7 6 8 12 13 12 12 9 8 7 6 6 5 5 5 3 3 3 3 2 2 1 1 1 1 1 3 3
5 5 5 4 5 4 3 2 2 2 2 2 4 0 3 3 3 4 4 5 6 6 6 6 6 6 6 6 7 7 7 6 5 5 6 6 6 6 7 7 7 7 6 6 6 6 6 6 6 6 7 7 7 8 7 8 7 8 10 13 14 13 13 11 7 8 9 6 4 4 4 5 4 3 2 3 2 2 1 1 1 1 1 2 3
Wind_Direction
193 198 195 199 197 197 197 195 196 196 196 197 198 200 202 201 201 202 194 200 192 194 198 199 198 197 196 198 198 198 200 201 197 196 199 206 208 207 200 198 205 211 200 205 208 199 201 206 203 198 180 183 187 178 174 171 151 160 156 151 163 167 149 160 190 247 292 236 228 243 276 187 303 222 238 272 288 275 245 250 264 265 264 262 266
196 195 195 197 198 199 197 195 194 193 196 197 200 201 203 202 200 195 201 203 194 197 199 199 198 197 199 201 200 200 199 201 196 196 202 207 211 203 204 202 209 212 199 207 202 207 199 207 210 193 184 186 184 182 186 171 172 172 180 175 177 189 191 149 202 209 260 308 275 287 268 192 226 235 201 242 264 258 271 269 239 230 259 267 267
194 193 196 197 200 199 196 195 194 196 197 199 202 202 202 201 196 199 203 202 200 200 199 198 197 197 202 201 201 202 201 200 199 199 205 207 208 208 206 204 208 209 205 209 197 194 204 209 208 189 176 182 188 195 182 185 180 183 192 185 185 195 192 191 157 215 254 270 245 264 261 219 201 242 229 211 257 278 298 294 299 304 278 261 265
192 194 197 199 198 196 198 197 195 197 200 202 202 202 200 200 197 201 202 199 199 201 199 198 196 199 203 202 201 203 202 201 201 203 206 206 209 210 207 207 210 212 208 202 194 192 205 206 209 188 178 186 190 192 195 187 185 190 192 193 191 192 195 194 201 193 214 243 293 217 267 236 273 265 283 301 276 286 251 280 292 280 284 288 267
191 195 196 196 196 199 200 196 198 199 203 202 203 201 200 199 198 201 197 200 199 196 201 198 198 200 203 202 202 204 203 199 201 205 208 208 211 210 209 209 212 212 208 201 196 195 200 209 201 184 184 191 195 195 190 192 193 188 192 190 193 194 182 189 207 203 206 229 259 263 256 281 266 297 297 301 312 299 278 255 260 268 285 279 273
193 192 193 195 198 199 199 199 201 202 203 204 203 201 201 200 200 200 197 198 195 198 199 198 200 204 206 204 202 203 200 200 203 205 206 207 208 210 210 211 213 210 206 201 201 197 202 207 193 185 188 196 200 197 192 197 187 194 199 196 196 184 189 196 194 199 213 234 229 279 274 244 294 278 269 210 253 286 297 293 303 284 275 297 276
190 191 193 196 196 198 199 201 200 201 203 205 203 201 202 203 201 201 196 196 195 198 201 201 204 205 206 203 204 202 201 201 204 206 206 205 205 207 210 211 212 210 208 205 203 200 203 202 195 190 195 200 198 197 195 196 192 198 202 202 195 190 200 204 190 197 208 227 241 229 251 253 219 261 296 232 244 237 269 306 305 292 306 293 301
190 192 192 196 199 199 201 198 198 201 202 203 204 204 204 203 204 200 192 197 200 200 200 202 205 205 205 205 205 201 201 203 204 205 204 202 202 207 209 210 212 212 211 208 203 205 205 204 202 197 199 200 199 199 188 196 190 202 205 200 192 193 208 207 197 204 218 224 231 243 228 246 266 251 273 49 332 308 232 228 266 285 289 287 258
190 192 194 198 201 200 195 194 198 199 200 202 204 204 204 204 202 197 197 199 201 203 201 201 202 205 204 204 204 202 203 206 203 201 200 201 202 208 209 211 210 210 211 212 209 207 207 207 208 206 204 203 201 197 195 186 184 200 204 192 197 195 207 205 210 212 228 230 251 239 252 249 231 224 252 220 217 238 234 177 244 261 277 296 285
189 191 196 201 200 195 193 194 196 197 199 202 203 202 202 202 200 200 200 199 200 199 201 202 204 204 202 203 203 203 208 208 205 199 196 196 201 208 210 212 211 209 208 209 211 209 210 209 211 205 201 206 207 208 205 201 201 199 199 190 198 196 203 211 212 217 223 232 238 239 244 249 237 214 222 227 209 211 230 211 234 266 307 282 288
192 195 200 200 195 191 192 195 194 197 201 200 199 199 201 200 202 203 201 198 199 198 199 202 205 204 203 202 203 207 209 209 199 193 195 198 200 207 210 212 209 208 206 205 209 211 207 208 214 212 206 207 210 211 209 208 211 213 209 202 195 193 195 205 220 209 213 224 233 230 233 250 251 205 211 232 226 215 227 210 231 241 238 254 278
193 198 202 197 192 192 194 193 194 199 197 199 197 197 196 199 203 203 202 201 200 197 200 204 203 203 204 205 206 209 211 205 190 189 192 199 203 208 211 213 209 206 205 206 211 209 207 203 211 210 209 207 207 213 213 214 215 217 217 215 209 201 200 191 204 208 211 223 233 234 224 234 256 202 216 183 241 246 240 234 232 230 242 243 239
196 200 199 193 194 194 193 192 197 198 198 197 193 191 194 199 203 202 205 203 196 199 204 200 204 201 202 204 209 210 213 196 187 187 192 200 206 210 214 211 205 202 204 207 210 207 202 202 205 202 206 208 205 209 214 219 219 221 223 221 207 200 207 215 208 245 202 201 223 240 216 210 231 252 198 208 190 225 239 233 231 225 226 234 248
198 201 197 196 195 193 192 194 197 199 196 191 190 192 196 202 203 202 201 196 201 205 203 204 203 201 202 205 209 210 212 191 186 186 193 202 209 209 217 207 205 203 204 208 210 205 193 193 197 198 196 201 205 206 212 217 216 218 220 210 200 206 211 212 224 213 184 201 200 260 4 62 275 270 279 116 205 241 232 250 232 233 222 231 240
199 200 198 198 194 192 193 195 198 196 190 189 191 196 199 204 202 199 197 199 202 204 202 203 204 204 204 205 208 209 214 186 184 188 195 204 212 207 214 209 204 201 206 210 206 202 194 192 193 194 190 198 205 204 204 207 206 209 207 207 194 206 129 161 189 182 164 83 107 220 212 205 255 306 304 272 240 235 225 242 240 225 239 293 314
201 198 199 197 196 195 193 195 196 191 188 190 195 200 201 201 201 197 198 203 206 204 205 205 205 204 204 204 207 212 209 182 185 188 197 207 211 205 211 208 209 207 209 205 203 197 188 180 192 196 192 198 207 206 203 194 199 203 209 202 201 142 142 194 172 88 110 169 213 185 95 232 242 266 269 254 252 255 269 316 63 136 352 333 294
202 199 201 200 199 197 195 194 192 189 190 194 199 201 201 201 200 194 198 202 202 202 204 202 201 201 202 203 206 212 210 186 185 189 197 209 204 206 194 190 215 216 216 208 199 191 182 191 196 197 195 199 200 203 206 187 190 200 202 206 202 139 108 122 134 129 152 202 237 224 221 249 270 268 265 263 251 225 139 44 286 178 322 302 295
203 200 203 199 197 195 194 192 192 193 194 199 201 202 201 200 199 193 198 200 204 205 201 201 201 202 200 203 203 206 210 182 183 187 199 206 196 185 188 199 210 209 228 212 191 191 193 195 194 190 190 201 196 201 204 194 191 199 201 204 221 111 104 116 125 200 239 234 235 237 235 234 242 249 247 249 216 187 151 233 231 123 265 233 260
204 204 206 200 196 192 190 190 194 196 199 202 201 200 201 200 196 192 202 203 205 199 197 201 203 200 202 202 200 202 203 176 182 188 200 202 188 182 194 193 202 203 202 209 205 199 197 201 195 187 191 203 197 199 196 189 197 197 189 183 186 90 137 162 184 179 205 246 272 334 334 279 238 230 260 302 160 184 188 220 189 174 222 233 238
207 208 207 197 192 190 192 196 199 199 202 202 199 201 197 193 193 197 202 201 200 197 199 200 199 201 198 199 197 199 190 169 186 192 199 196 186 176 182 181 197 200 204 204 199 201 197 193 198 196 195 199 195 191 188 188 190 181 138 161 171 163 171 175 161 169 202 203 197 191 224 264 302 334 327 325 293 217 203 206 188 176 182 207 216
200 200 195 188 189 194 197 199 201 205 204 201 199 195 192 195 194 197 199 198 198 197 196 197 198 199 195 195 191 186 183 169 184 191 194 191 181 176 183 191 196 194 195 196 192 190 184 190 182 202 200 197 187 185 176 193 175 127 160 184 210 156 156 158 178 178 172 170 172 180 235 265 279 267 253 245 242 225 191 186 181 176 175 195 220
200 197 191 191 194 194 195 198 202 204 202 194 192 198 198 195 194 194 193 194 196 195 190 188 192 187 178 174 173 173 168 167 171 189 187 180 176 186 184 195 187 182 182 191 186 182 180 178 196 198 193 184 184 174 175 176 171 158 202 196 132 137 157 157 142 130 138 146 165 186 192 200 218 220 220 223 237 186 162 177 186 196 207 199 196
188 191 195 202 202 199 198 196 195 195 195 195 197 198 192 192 193 189 189 190 192 190 185 178 168 160 156 159 158 159 160 164 165 169 181 178 182 189 188 183 176 172 178 185 187 191 170 174 191 188 181 187 155 142 171 179 164 205 198 130 155 155 139 123 128 123 135 162 178 199 196 193 227 286 293 268 265 209 209 209 218 216 230 228 219
177 185 193 199 201 202 202 201 199 196 193 189 191 191 189 191 188 186 185 182 184 184 180 170 161 160 158 153 152 152 158 158 174 173 174 181 180 185 189 173 162 176 171 181 175 166 161 177 173 166 157 128 141 165 178 182 182 176 148 163 153 151 129 132 127 153 163 165 188 238 251 197 197 260 252 243 241 226 231 234 242 220 225 254 253
191 196 200 202 202 203 201 197 196 197 194 187 187 189 187 182 183 186 179 179 180 179 178 171 169 167 157 158 157 153 150 149 147 169 166 170 176 181 183 167 173 156 157 155 149 163 165 150 144 141 130 142 150 168 189 193 123 144 152 146 145 131 142 146 160 141 170 215 229 243 189 178 207 226 241 251 249 228 291 315 303 258 240 240 281
204 206 207 206 207 204 201 201 198 194 189 188 191 187 183 180 177 173 173 177 176 173 169 170 167 160 158 154 156 151 143 134 139 141 151 164 173 183 172 158 165 162 137 130 143 139 144 142 129 120 122 132 139 148 166 172 132 129 135 145 121 135 147 148 146 171 205 214 210 223 199 197 225 242 247 219 155 265 249 297 343 325 340 346 345
205 208 208 209 205 198 196 196 194 190 186 185 187 183 177 177 174 170 173 172 175 172 165 167 162 160 157 154 145 143 144 141 139 139 140 151 155 143 131 126 129 112 106 109 106 103 105 113 128 121 119 138 137 144 132 122 101 97 118 132 128 143 146 165 177 187 195 192 208 209 216 229 250 259 255 215 243 256 172 229 287 284 306 337 320
208 211 210 205 198 193 193 186 182 182 183 179 174 171 176 175 175 180 181 179 173 169 168 168 165 161 155 148 144 141 144 145 155 155 158 153 144 145 148 145 147 141 124 118 118 122 120 111 106 110 122 117 119 119 126 130 125 121 116 137 141 146 179 196 185 155 172 180 189 189 212 200 247 254 278 253 236 262 193 213 177 293 309 17 344
318 287 236 202 198 193 190 189 184 181 174 171 166 172 178 180 180 189 194 188 172 165 169 165 163 160 152 151 147 150 150 167 182 173 164 159 154 156 164 159 145 140 144 132 114 107 114 110 109 125 144 144 142 145 143 133 131 146 155 146 140 169 185 173 187 200 193 181 208 208 220 198 237 266 271 276 260 263 264 313 306 212 290 150 232
355 13 349 287 213 196 192 183 177 177 169 159 143 97 44 67 150 162 135 44 283 176 158 159 156 144 140 151 155 158 171 173 148 144 144 153 158 159 154 148 144 135 145 147 137 135 142 147 156 153 154 157 155 157 165 164 159 160 173 171 177 184 197 197 208 201 193 207 214 209 217 188 236 231 209 230 281 284 231 189 242 185 258 288 296
9 347 322 216 187 169 158 157 165 160 164 164 158 149 121 66 51 64 113 127 124 109 105 124 132 137 138 132 65 96 126 129 140 146 150 156 159 155 153 154 142 139 145 133 118 139 151 158 166 167 161 160 168 178 171 170 177 169 174 179 187 192 195 199 206 192 202 216 223 218 195 187 219 210 203 206 223 278 328 153 168 118 227 254 270
53 55 26 338 295 188 165 166 161 159 167 168 158 147 126 109 69 49 54 96 110 121 133 131 126 129 129 126 122 62 100 130 141 148 155 152 149 145 149 152 149 148 166 148 140 156 164 163 165 171 159 165 182 173 170 176 177 179 173 183 202 198 188 209 193 184 193 191 202 202 199 198 197 189 190 194 188 254 297 311 332 300 295 258 253
66 41 359 337 324 284 212 169 163 160 157 161 165 156 148 138 130 125 74 62 74 84 88 98 118 124 123 126 130 138 149 153 147 146 150 148 144 151 155 154 156 161 148 148 157 161 171 169 168 167 169 178 177 179 179 176 181 185 185 188 193 197 197 191 157 176 185 191 177 186 181 175 168 172 159 142 154 237 227 260 277 289 261 301 305
81 72 62 20 352 4 352 331 15 126 132 129 128 135 140 139 135 123 124 120 85 60 60 64 85 101 109 121 124 128 137 144 145 145 143 142 147 145 137 137 145 164 166 167 159 171 168 171 170 171 180 179 170 167 176 184 175 157 154 159 157 142 144 138 137 152 151 157 161 163 155 151 139 139 187 171 183 198 243 257 322 334 321 295 296
100 109 114 102 57 22 9 8 10 17 56 76 88 93 95 99 98 100 108 118 121 126 149 71 40 58 94 106 123 129 132 133 138 137 132 133 131 128 114 113 125 195 245 179 166 164 171 172 173 173 169 170 171 167 165 155 139 143 146 140 129 125 129 140 148 147 148 148 146 159 155 152 156 166 182 186 153 148 213 262 266 228 259 298 299
96 85 79 74 53 61 66 16 34 5 116 115 117 112 104 93 83 87 87 87 112 118 96 64 79 66 69 61 90 119 129 131 129 128 137 138 140 136 137 151 153 173 176 169 171 172 170 167 158 162 160 157 154 155 151 149 156 151 147 139 144 147 145 146 148 146 147 143 147 129 135 114 132 153 122 110 170 189 202 229 261 273 264 274 283
104 107 98 75 57 63 70 46 36 7 43 64 70 78 79 90 96 91 91 113 117 90 101 120 107 82 67 59 70 78 89 114 124 136 146 152 157 157 156 160 165 160 168 165 162 157 155 162 151 148 154 153 155 151 147 143 140 136 140 138 142 143 160 162 162 151 144 135 121 128 140 188 210 162 156 158 195 211 231 223 233 283 290 297 304
91 101 102 100 86 52 52 41 34 51 52 76 77 70 62 64 76 89 103 117 120 119 119 120 116 120 118 108 97 103 95 86 87 80 99 133 159 160 151 157 155 161 160 159 160 156 155 156 155 153 158 148 145 146 139 140 144 144 144 148 153 163 158 153 148 142 151 159 177 184 172 191 185 179 162 147 171 188 214 226 246 312 314 313 328
69 92 101 110 99 104 104 97 71 58 60 62 70 84 89 87 81 96 107 115 108 114 117 120 127 132 131 131 114 118 112 121 140 152 159 180 175 154 150 153 152 152 151 157 159 154 153 158 160 148 146 147 147 150 151 154 152 152 152 148 152 149 150 160 166 177 173 179 190 181 176 175 174 165 142 143 173 183 202 231 242 267 298 306 300
80 69 76 85 92 98 111 94 78 75 78 77 78 87 101 111 127 131 128 123 126 136 136 133 134 131 130 126 128 141 144 149 158 162 168 169 171 163 157 153 156 155 158 163 161 158 155 156 151 146 148 150 151 156 158 155 159 155 149 154 159 171 182 178 178 178 190 183 170 166 156 160 166 144 136 157 184 183 184 249 270 273 269 273 287
51 60 67 75 91 92 89 83 85 91 90 91 93 97 103 106 105 110 111 117 126 134 136 132 119 124 150 153 162 163 153 158 157 164 171 167 165 162 162 158 152 153 155 161 160 160 155 149 150 148 149 153 152 148 151 149 150 150 162 167 165 173 177 182 177 181 173 164 161 155 154 139 137 132 152 189 164 158 190 193 240 270 285 283 287
70 60 60 58 84 95 92 97 101 104 107 116 122 125 127 128 129 128 128 130 138 128 117 103 108 117 123 139 158 123 96 129 144 150 150 155 157 158 156 155 156 155 160 162 162 157 152 147 149 150 150 150 146 148 148 155 158 162 161 161 170 171 170 180 182 175 159 148 135 132 134 134 137 141 147 146 162 171 175 198 256 286 296 300 309
71 74 59 55 70 102 121 124 122 122 125 120 121 124 128 131 137 131 132 135 131 129 127 123 118 114 130 152 160 145 130 149 148 149 153 151 154 151 152 157 160 162 164 165 163 155 150 148 151 157 157 162 163 163 167 171 167 161 163 165 169 170 173 174 169 160 148 138 139 141 140 143 148 158 170 172 178 182 181 213 265 302 299 306 306
61 46 45 41 51 85 98 128 141 142 140 141 139 135 134 135 135 138 138 132 130 130 130 130 124 135 133 151 151 141 140 146 147 151 151 151 156 161 157 141 141 147 153 154 154 146 142 142 146 153 153 158 159 157 155 158 158 158 161 162 165 172 175 174 174 172 162 151 151 151 158 159 158 162 176 173 160 165 192 227 275 307 314 312 313
91 86 86 75 45 43 50 47 63 105 125 127 128 143 148 146 145 137 131 135 139 139 147 147 148 143 141 159 166 152 147 146 147 147 152 157 159 162 149 136 137 144 147 148 148 142 140 141 144 145 148 148 153 156 159 161 163 161 160 160 167 176 186 191 185 172 156 148 156 156 159 159 170 180 189 195 188 179 181 193 251 302 319 315 320
81 65 59 66 74 66 49 45 50 59 76 87 115 134 140 137 139 140 144 150 154 151 150 147 147 153 157 158 154 149 145 146 150 155 149 147 149 156 153 145 140 148 154 153 151 150 147 147 150 151 153 158 160 157 151 154 159 166 170 170 174 184 185 173 160 155 163 153 157 165 170 171 182 186 192 183 186 173 185 218 225 228 239 275 289
77 77 79 88 100 119 130 128 112 91 93 103 97 93 122 136 132 120 130 151 153 149 140 147 147 152 155 156 158 152 151 151 154 155 159 155 152 153 153 145 143 144 149 151 153 150 149 150 152 152 150 150 146 146 151 153 149 149 154 157 145 141 156 165 168 168 174 179 162 152 167 172 182 191 195 149 162 179 183 210 232 296 299 287 287
72 94 115 118 99 74 58 63 80 82 87 113 141 143 135 117 111 125 120 116 141 146 142 142 142 143 148 152 151 148 154 156 153 150 148 151 154 154 153 150 151 154 150 153 156 154 154 155 151 146 143 144 147 152 153 155 152 158 164 168 165 165 171 171 173 180 176 157 159 164 160 166 175 180 184 169 175 179 183 223 264 242 268 294 298
69 70 59 46 58 86 108 100 96 130 151 141 114 130 131 134 142 141 139 150 167 166 147 147 142 144 147 152 152 150 149 148 146 148 148 149 148 154 153 154 151 153 157 163 165 164 161 158 156 154 154 155 156 155 157 158 167 172 179 181 188 185 179 179 181 187 175 162 162 153 141 144 165 180 180 179 187 183 186 209 249 280 302 298 299
54 58 61 40 38 21 24 53 45 28 53 136 173 152 128 152 154 164 148 148 143 145 142 142 146 152 151 149 154 155 155 155 149 141 141 146 149 148 149 150 155 161 165 164 166 162 158 158 159 156 155 157 160 160 163 166 171 182 186 193 197 190 189 187 183 174 168 176 172 167 156 160 160 168 181 185 179 170 181 225 235 265 291 302 296
62 58 50 43 39 41 54 78 129 134 103 65 21 90 158 166 138 118 105 127 138 150 150 146 144 140 146 152 154 154 159 151 146 137 140 148 154 154 153 155 158 159 154 149 152 158 163 164 164 163 162 165 167 170 171 176 178 185 195 199 195 190 185 178 184 195 185 175 162 150 149 155 159 168 186 189 168 162 208 232 261 274 294 290 293